Theta_e
315 320 322 323 322 321 320 318 320 321 321 324 328 330 325 321 322 322 323 314 306 314 321 318 316 315 314 313 311 312 312 309 310 311 312 315 317 317 318 318 319 318 319 319 318 318 317 317 316 315 315 314 314 314 313 314 313 313 312 312 312 313 313 313 313 313 312 311 311 318 327 328 323 320 321 325 329 330 329 328 326 326 325 324 323 323
316 321 323 322 318 317 319 318 319 320 321 326 324 322 322 322 323 320 318 314 308 313 321 318 316 316 314 313 310 310 310 310 311 311 311 315 317 317 318 318 319 319 318 319 318 318 317 317 316 315 315 315 314 315 314 314 313 313 313 312 312 313 313 314 314 312 313 311 311 320 329 328 323 317 318 325 330 330 329 327 324 323 320 320 322 321
319 322 322 315 310 312 316 316 320 321 323 328 323 319 322 322 321 318 314 314 311 312 320 321 316 315 314 313 311 310 310 311 313 313 314 316 316 316 317 318 318 318 318 319 318 319 318 318 317 316 316 315 315 315 314 314 314 313 313 312 312 312 313 313 313 312 312 311 312 319 322 319 319 321 321 325 328 328 326 324 323 322 319 320 323 322
321 323 318 308 308 316 318 315 319 320 321 325 323 321 324 321 319 319 316 314 313 312 317 319 315 313 313 313 313 311 310 311 313 314 315 315 315 316 317 317 317 317 318 318 318 318 318 318 317 317 317 316 315 315 315 315 314 314 313 312 312 312 313 312 313 313 311 313 317 318 317 317 322 327 326 325 325 323 322 323 324 324 321 319 319 319
321 318 310 305 311 321 320 315 317 319 319 321 321 322 324 322 320 319 318 317 316 315 313 315 317 320 321 320 318 315 310 310 312 313 315 316 317 317 317 316 317 317 318 317 318 317 317 317 317 317 317 316 316 315 316 315 315 314 313 313 312 311 312 312 313 312 312 316 319 317 316 319 324 327 327 325 322 320 323 325 326 325 322 319 317 319
320 312 309 312 314 319 321 319 319 320 321 321 321 321 320 321 320 318 319 319 322 323 314 313 320 330 332 328 324 321 317 316 314 312 314 316 317 316 316 318 317 318 318 318 318 317 317 317 316 316 316 316 316 316 316 315 315 314 313 313 312 311 311 312 312 312 313 315 316 315 317 319 320 324 326 322 321 323 326 326 326 324 321 319 319 319
317 310 312 321 317 316 319 318 319 318 320 322 319 318 316 316 318 318 318 318 324 326 314 311 318 326 327 323 319 321 320 319 315 312 312 314 316 315 316 317 318 318 318 318 318 318 318 318 317 317 317 317 317 316 315 315 314 313 313 312 311 311 311 311 312 312 312 314 314 315 319 321 318 319 322 321 321 325 326 325 325 323 321 321 319 318
315 313 315 320 320 318 317 319 320 315 320 324 317 316 317 315 319 320 318 318 322 322 314 314 320 321 321 320 319 320 320 319 319 319 316 312 314 316 316 317 317 317 317 317 317 318 318 318 318 318 318 317 316 315 314 314 314 313 312 312 311 311 310 310 312 312 311 314 316 316 319 323 320 317 320 321 321 325 326 324 324 321 321 321 317 317
313 318 317 317 320 319 319 323 320 314 320 322 312 313 317 317 321 321 321 320 319 319 318 318 319 320 323 325 322 319 320 322 324 325 320 313 314 315 316 317 316 316 317 317 318 318 318 318 318 318 317 316 315 314 314 313 313 313 311 311 311 310 310 310 311 312 312 315 317 316 317 322 322 319 320 320 320 324 325 323 321 319 320 319 316 317
310 315 314 315 319 320 319 317 312 315 319 313 307 312 316 317 320 320 323 323 322 323 320 319 319 318 322 325 323 319 321 325 323 321 317 312 314 316 316 317 317 318 318 318 319 319 319 319 319 318 318 317 316 314 313 312 312 312 311 311 311 310 310 310 310 312 313 314 315 315 319 324 322 317 318 320 321 322 323 322 321 319 319 318 316 316
309 309 310 313 316 315 315 310 307 312 313 308 313 320 318 320 321 321 323 322 324 325 319 319 320 317 319 323 324 321 322 326 323 322 320 314 315 316 317 317 318 318 319 319 320 319 319 319 318 319 318 318 316 314 313 312 312 312 312 311 311 310 310 309 310 311 312 315 315 315 318 320 318 316 318 322 322 321 321 321 321 319 317 316 315 316
310 312 313 312 311 310 313 312 308 307 306 311 325 326 320 323 321 320 323 321 324 324 318 318 318 315 319 324 324 321 320 322 320 323 325 318 316 316 316 317 318 318 318 318 319 318 319 319 318 318 318 317 317 315 314 313 312 312 312 311 311 310 310 309 310 310 310 312 314 314 315 316 317 318 321 322 320 319 320 321 320 318 315 314 315 316
314 317 314 311 310 311 318 320 313 311 310 317 327 323 319 323 320 320 324 322 324 320 314 315 317 316 318 320 320 320 319 319 314 314 318 315 314 317 317 317 317 318 318 317 318 318 318 318 318 318 317 317 317 316 315 313 312 312 311 311 311 310 310 309 309 310 310 311 311 312 314 317 318 320 322 321 319 319 320 320 318 316 315 314 315 316
318 317 313 313 313 312 317 320 318 317 316 318 322 322 321 322 320 321 322 318 319 317 311 310 315 318 318 318 320 318 316 317 312 311 313 312 314 317 317 316 316 317 317 317 317 318 318 318 318 317 317 316 316 315 315 313 312 312 311 311 310 310 310 309 309 309 310 311 312 312 315 319 319 320 321 320 319 320 319 317 318 317 315 314 315 315
318 318 316 315 315 314 314 315 319 320 317 317 320 319 321 323 322 323 324 321 319 320 314 309 314 323 323 321 319 313 311 312 312 313 313 312 314 316 315 315 316 317 317 317 318 318 318 318 317 317 317 316 317 316 315 314 313 312 312 311 311 310 310 309 309 309 309 311 313 313 314 316 317 317 317 317 318 318 316 317 318 318 315 314 314 314
315 318 318 313 311 313 314 313 315 319 316 316 318 318 319 321 320 318 317 319 319 321 320 315 317 323 321 319 316 311 312 313 311 311 311 313 315 314 314 315 316 317 318 317 318 318 318 318 317 317 317 316 316 316 315 314 314 313 313 312 311 310 310 309 309 309 309 310 313 313 311 311 314 316 317 318 318 316 317 318 318 316 315 314 314 314
315 318 316 311 311 312 312 311 312 314 315 316 316 318 317 316 321 321 313 310 313 317 320 319 320 320 318 318 317 316 320 319 313 311 310 313 314 313 313 316 317 317 318 317 318 318 318 318 317 317 317 316 316 316 315 315 314 313 313 312 311 310 310 309 309 309 309 309 311 311 310 311 314 317 318 317 316 316 317 317 316 315 315 314 314 314
319 319 314 312 314 311 308 310 310 308 313 318 319 318 314 312 320 324 318 317 318 319 322 321 319 318 318 319 318 317 318 318 318 316 312 311 312 313 314 316 317 317 318 318 318 318 318 318 318 318 317 316 316 315 315 315 314 313 312 312 311 310 310 309 309 309 308 309 310 311 311 311 313 316 315 315 316 317 316 316 314 314 315 315 314 314
316 318 316 311 314 312 308 312 315 310 309 315 317 315 316 319 321 321 319 321 321 321 325 326 320 315 316 319 319 317 319 322 320 316 314 313 312 313 314 315 317 317 318 318 318 318 318 318 318 318 317 317 316 315 315 314 314 313 312 312 311 310 310 309 309 309 308 308 310 311 311 311 312 314 315 316 317 316 315 315 313 314 316 315 313 314
315 316 318 311 309 312 312 314 319 316 311 311 313 312 315 321 321 320 319 319 319 320 323 326 322 318 318 321 322 318 320 325 324 322 322 317 312 313 314 315 317 318 318 318 318 318 318 318 318 318 317 317 316 315 315 314 314 313 312 312 311 310 310 309 309 308 308 308 309 309 310 311 313 315 317 317 315 314 314 313 313 315 316 315 313 314
314 313 316 313 309 313 317 316 316 317 315 313 315 316 315 317 318 319 318 317 320 324 325 325 321 317 320 321 321 319 320 323 328 329 325 316 311 314 316 317 318 318 318 318 318 318 318 318 318 318 317 317 316 316 315 314 314 313 312 312 311 311 310 309 309 309 308 308 308 308 309 311 313 315 316 315 314 313 312 312 314 316 315 314 314 315
315 315 318 317 314 315 319 316 312 314 316 315 315 317 316 316 316 317 317 316 318 320 322 323 319 317 322 320 320 322 323 320 319 319 317 313 313 316 317 317 318 318 318 318 318 318 318 318 318 318 317 317 317 316 315 314 314 313 312 312 311 311 310 310 309 309 309 308 308 308 309 311 313 315 316 315 314 312 311 313 315 314 313 312 312 313
314 317 319 319 318 317 315 310 306 309 315 315 315 316 315 315 316 318 319 318 318 317 316 318 320 319 319 321 321 319 316 313 311 310 311 312 314 317 317 317 318 318 318 319 318 318 318 318 318 318 318 318 317 317 316 315 314 313 312 312 311 311 310 310 309 309 309 309 308 309 310 311 312 314 315 314 313 311 310 313 315 313 311 310 311 311
313 317 317 317 321 321 317 311 306 307 312 314 315 315 315 316 318 320 319 317 318 320 318 318 320 319 315 318 314 308 306 309 310 311 312 313 314 316 318 317 318 319 318 318 318 318 318 318 318 318 318 318 318 317 317 316 315 313 312 312 311 311 310 309 309 308 308 309 308 309 310 311 311 313 314 314 312 310 311 313 313 312 311 310 310 311
314 318 317 316 320 322 319 316 313 311 312 315 318 317 316 316 317 317 317 315 317 321 321 319 319 318 317 318 313 309 311 314 312 311 314 315 316 317 317 317 318 319 319 318 318 318 318 318 317 318 318 318 318 318 317 317 316 315 313 312 311 311 310 309 309 308 308 308 308 309 310 312 312 313 314 313 311 310 312 313 312 311 310 309 310 310
316 319 316 315 317 318 317 317 318 316 314 315 319 318 315 316 317 316 317 317 317 319 319 318 318 316 318 320 319 319 321 320 315 312 313 315 316 317 318 317 317 319 318 317 317 317 319 318 317 318 318 318 317 317 317 317 316 315 314 313 311 310 310 309 309 308 308 308 308 309 310 311 312 313 314 313 311 310 311 311 311 311 310 309 310 309
320 320 315 315 317 316 316 317 319 319 318 316 318 317 315 314 316 316 317 318 317 317 317 316 316 316 317 320 324 324 323 325 321 313 310 314 316 318 319 317 317 318 317 315 316 317 319 319 318 318 318 317 317 317 317 316 316 315 314 313 312 311 310 309 309 308 308 308 308 308 309 310 311 312 313 313 311 311 311 311 311 310 310 309 309 309
322 319 316 317 316 315 316 318 318 319 319 318 317 316 315 314 315 316 317 317 317 317 317 317 316 316 316 317 323 327 327 328 323 312 312 317 318 318 318 318 317 317 316 317 318 318 319 319 318 318 318 317 317 316 317 316 316 315 314 313 312 311 310 309 308 308 308 308 308 308 308 309 310 311 312 312 310 310 311 311 311 310 309 309 309 308
320 318 317 318 317 316 316 318 319 319 317 317 316 316 315 314 314 315 316 316 316 317 317 317 317 318 316 314 318 322 322 321 319 315 315 317 317 316 317 317 317 317 317 318 319 319 319 319 318 318 318 318 317 316 316 317 316 315 314 313 312 311 310 309 308 308 308 308 308 307 307 308 309 309 311 311 309 309 310 311 310 310 309 309 309 307
317 318 318 318 317 317 316 317 320 319 316 316 316 315 314 314 314 315 315 315 316 316 316 316 317 317 315 315 317 317 315 315 314 315 315 315 316 317 317 317 317 318 318 319 318 318 318 318 318 318 318 318 317 317 317 317 317 316 314 313 313 311 310 309 308 308 307 307 308 307 306 306 307 309 310 309 308 308 310 311 310 309 309 309 308 306
314 317 319 317 316 318 317 316 318 318 316 316 317 316 314 314 314 314 315 315 315 316 316 316 317 316 314 315 316 314 313 314 314 313 313 315 317 317 317 317 317 318 318 318 318 318 318 318 318 318 318 318 317 317 317 317 317 316 314 313 313 311 310 309 308 307 307 307 307 307 306 306 306 308 307 307 307 308 310 310 309 309 308 308 306 304
314 317 319 318 317 318 318 317 317 315 314 315 316 317 315 314 313 313 314 315 315 316 316 315 316 316 315 316 315 313 313 312 312 312 313 315 317 317 317 317 317 318 318 318 318 318 317 317 318 318 317 317 317 317 317 316 316 316 315 314 313 311 310 309 308 307 307 307 307 306 306 305 305 306 306 306 306 307 308 309 309 309 308 308 306 303
315 316 317 317 317 318 317 317 316 316 316 317 317 316 315 314 313 313 314 314 314 315 316 316 316 315 316 318 317 317 317 314 312 312 314 315 316 316 317 317 317 318 318 318 318 317 317 317 317 317 317 316 316 317 316 316 316 316 315 313 312 311 310 309 308 307 306 306 306 306 306 305 305 305 305 305 305 306 307 309 309 309 309 308 306 302
315 316 315 315 316 318 317 316 317 317 318 319 319 317 316 315 314 314 315 314 314 314 314 315 315 314 315 316 316 317 318 315 313 314 315 316 316 316 316 316 317 317 317 317 317 316 317 317 316 316 316 316 316 316 316 316 316 315 314 313 312 311 309 309 308 307 306 306 305 305 305 305 304 304 305 305 306 306 307 308 308 308 308 307 305 301
315 314 314 314 315 317 317 316 318 319 318 320 323 320 316 315 315 314 315 314 313 314 314 314 314 314 314 314 314 313 314 314 314 314 315 315 315 316 316 316 316 316 316 316 316 315 316 316 315 315 315 315 315 315 315 315 315 314 313 312 312 310 309 308 307 306 305 305 304 304 304 304 304 304 304 305 306 306 306 307 307 307 307 306 305 302
314 313 313 314 315 316 317 317 319 320 318 319 323 321 316 316 316 315 316 315 314 314 314 314 313 314 313 313 313 313 313 312 313 313 314 314 315 315 315 315 315 315 315 315 315 315 315 314 314 314 314 314 314 314 315 315 314 314 312 312 311 309 308 307 305 305 304 304 303 303 303 303 303 304 304 305 306 306 306 306 306 306 306 304 303 302
314 314 313 314 315 316 318 318 318 319 319 319 320 319 315 316 318 317 317 316 315 313 314 313 314 314 313 312 313 313 312 312 312 313 313 314 314 314 314 315 315 314 314 314 314 314 314 314 314 313 313 313 313 313 314 314 313 313 312 311 310 308 307 305 304 304 303 302 302 302 302 302 302 303 303 304 305 306 306 306 306 306 305 304 303 302
314 314 314 315 316 315 317 319 318 319 320 319 318 317 315 314 315 316 317 318 316 314 313 313 313 313 313 313 312 311 312 313 314 314 313 313 314 314 314 314 314 314 314 314 314 314 314 314 314 313 313 313 312 312 312 312 312 311 310 309 308 306 305 304 304 303 302 301 301 301 301 301 301 302 302 303 304 305 305 305 305 304 303 303 301 301
314 314 314 315 316 316 317 319 319 320 320 319 319 320 316 312 312 313 316 318 317 314 312 312 314 314 313 312 311 311 313 315 315 314 313 314 314 314 314 314 314 314 314 314 314 314 314 314 314 313 313 312 311 311 310 310 310 309 308 307 306 305 304 303 302 302 301 300 300 300 300 300 300 300 301 301 302 303 303 303 302 301 301 300 299 298
313 314 315 315 316 317 317 317 318 318 319 321 322 319 313 311 312 316 319 319 317 315 313 312 312 313 312 311 311 312 314 315 315 314 313 313 313 313 314 314 313 314 314 313 313 314 313 313 313 313 312 311 310 309 309 308 308 307 306 305 304 303 302 302 301 300 300 299 299 299 299 299 299 299 299 300 300 301 301 300 300 299 298 297 297 296
314 314 315 315 316 316 316 318 318 317 319 321 318 311 309 311 315 319 321 318 314 314 314 312 311 312 313 311 311 312 313 313 314 313 312 312 313 313 313 313 313 313 313 313 313 313 313 313 312 311 311 309 308 308 307 307 306 305 304 303 302 302 301 300 300 299 299 299 299 299 298 298 298 298 298 299 299 298 298 297 297 296 296 296 296 296
315 315 315 316 316 315 316 317 316 317 319 318 312 306 308 315 319 318 317 315 313 314 315 314 313 314 314 312 311 312 313 313 313 312 311 312 312 311 312 312 312 312 312 312 312 312 311 311 310 309 308 307 307 306 306 305 305 304 304 303 302 302 301 300 300 299 299 299 299 298 298 298 298 298 298 297 297 297 297 296 296 296 296 297 297 296
314 315 315 315 315 316 316 316 317 319 318 314 311 310 312 316 318 317 315 314 314 314 314 315 315 316 316 314 313 313 313 312 312 311 311 311 311 311 311 311 311 312 312 311 311 310 309 308 307 307 306 306 306 305 305 305 305 304 304 303 303 302 301 301 300 300 299 299 299 298 298 298 298 297 297 297 297 297 298 298 298 298 298 298 297 297
314 315 316 315 315 315 316 317 317 316 314 312 313 314 313 313 313 313 313 314 313 313 314 314 315 316 316 316 315 314 313 312 311 311 310 310 310 310 310 311 311 311 310 309 309 308 307 307 306 306 306 306 306 305 305 305 305 305 305 304 303 303 302 301 301 300 300 300 300 299 299 299 299 298 298 298 299 299 299 299 298 298 297 297 297 296
314 314 313 312 315 315 314 314 313 310 308 309 311 312 311 311 311 311 310 310 311 312 313 314 315 315 316 316 315 313 312 312 311 310 310 309 310 310 310 310 309 309 308 308 307 307 306 306 307 307 307 306 306 306 305 304 304 305 305 304 303 303 302 302 302 302 301 301 301 301 300 300 300 299 299 299 299 298 298 297 297 296 295 295 294 293
312 310 307 309 315 315 312 310 309 307 308 309 309 310 311 311 311 310 310 310 310 311 312 313 314 315 315 315 314 312 312 312 310 310 309 309 309 309 309 308 308 308 307 307 307 307 306 306 307 307 307 307 306 305 304 303 302 304 304 304 304 303 303 303 303 302 302 302 301 301 300 300 299 298 297 297 296 296 295 295 294 293 293 292 291 291
310 308 308 311 314 314 315 315 313 310 310 310 310 310 311 311 311 311 310 311 311 311 311 311 313 313 314 314 313 313 312 311 311 310 309 309 308 308 307 307 307 307 307 307 307 307 306 306 306 306 306 306 305 304 304 303 302 303 304 304 303 303 302 302 302 302 301 301 300 299 298 298 297 296 295 295 294 294 293 293 292 292 292 291 291 291
311 309 309 312 312 312 315 316 312 308 308 308 308 308 308 310 311 311 312 312 311 311 310 310 311 311 312 313 313 312 312 311 310 310 309 308 307 307 306 306 306 306 306 306 306 305 305 305 305 305 305 305 304 303 303 303 302 302 302 302 302 301 301 300 300 299 299 298 297 297 296 295 295 295 294 294 293 293 293 293 292 292 292 292 291 291
309 309 310 311 312 312 313 312 310 308 308 309 309 308 309 310 310 311 311 311 309 309 309 309 310 310 310 311 311 311 311 310 309 308 308 307 306 306 305 305 305 305 305 304 304 303 303 304 304 304 304 304 303 302 302 302 301 301 300 300 299 299 298 298 297 297 296 296 296 295 295 295 294 294 294 293 293 293 292 292 291 291 291 291 290 290
308 310 310 311 311 312 312 312 312 312 311 311 311 311 312 312 310 310 309 309 309 309 309 309 309 309 308 309 310 309 309 309 308 306 306 306 305 305 304 304 303 303 303 303 302 302 302 303 303 303 303 302 301 300 300 299 299 298 297 297 297 297 296 296 296 295 295 295 294 294 293 293 293 292 292 292 291 291 291 290 290 290 290 290 290 290
308 310 310 310 311 312 311 311 310 310 311 312 311 311 312 312 311 310 310 310 310 309 308 308 308 308 308 308 308 308 308 308 307 306 305 305 304 303 303 303 303 303 302 301 301 300 300 300 300 300 299 299 298 297 297 297 297 296 296 296 295 295 294 294 294 293 293 292 292 292 291 291 291 291 291 290 290 290 290 290 290 290 290 290 290 290
Wind_Speed
4 3 2 5 7 7 8 7 6 5 7 7 5 4 4 3 5 4 4 5 1 2 6 7 7 11 12 9 16 26 21 15 20 23 28 31 32 34 34 35 35 34 34 31 29 29 28 28 28 29 30 31 31 31 31 30 29 28 29 30 30 28 26 24 24 24 25 26 25 23 24 27 26 24 25 25 25 26 24 21 20 21 23 24 25 27
5 4 7 8 7 7 6 7 8 6 6 6 5 3 1 3 6 5 2 4 0 2 5 3 5 12 12 10 16 21 16 16 23 24 28 33 35 37 38 39 39 37 35 33 32 32 31 32 31 30 31 31 32 32 31 30 29 29 30 31 31 29 27 26 25 25 25 25 24 26 30 32 28 24 24 28 29 27 23 21 20 22 24 24 24 25
2 4 9 6 9 7 5 6 8 6 6 4 3 2 2 3 4 5 2 4 1 3 4 4 5 11 12 11 16 20 17 22 29 29 32 35 36 39 40 40 39 38 38 37 35 34 33 33 32 32 32 32 32 32 31 30 29 30 30 31 32 31 29 27 26 26 25 25 24 27 30 29 27 25 27 30 30 29 27 25 24 24 24 24 24 24
2 6 7 8 13 9 6 4 7 6 4 3 4 4 3 3 1 3 3 3 0 2 3 4 5 9 10 11 14 19 19 23 30 32 36 38 38 42 43 41 40 41 42 40 38 36 35 34 34 33 33 33 33 33 32 32 31 31 31 31 33 32 31 29 28 27 26 25 25 27 26 23 25 27 29 29 29 30 31 29 29 27 24 23 25 27
5 5 2 7 8 8 7 4 6 6 2 2 4 6 4 4 4 5 4 3 2 2 2 3 6 6 6 8 9 9 8 14 22 25 30 35 36 39 40 38 38 39 39 37 36 35 34 34 33 33 32 33 34 33 33 33 32 32 31 32 33 33 32 30 29 28 26 27 28 28 26 25 27 31 31 30 30 33 34 32 30 26 23 23 24 26
7 4 6 7 4 6 8 4 5 7 3 4 5 8 9 7 5 3 3 5 4 4 3 2 4 5 4 6 9 5 5 11 15 15 24 33 32 32 34 35 34 34 33 32 32 31 30 30 29 30 31 31 32 32 33 33 33 33 33 33 33 33 33 31 30 28 27 29 31 29 28 29 32 35 36 32 30 33 34 32 28 23 24 24 24 23
3 3 6 7 5 6 6 2 6 7 5 2 4 8 8 5 4 3 0 2 1 4 3 2 1 5 6 8 11 7 7 13 13 12 22 33 32 31 33 34 34 33 32 31 29 28 27 25 25 26 26 27 28 29 31 33 34 34 34 34 33 33 33 32 31 30 29 30 30 28 29 31 31 34 36 30 28 31 31 28 25 24 26 26 25 22
4 4 4 6 6 6 5 3 6 8 7 2 3 4 6 6 6 5 4 3 3 3 3 2 3 4 6 8 8 4 7 11 12 13 18 26 29 29 29 29 28 27 26 26 25 24 23 22 21 21 22 23 24 27 30 32 33 35 35 34 33 33 34 33 32 31 30 29 29 29 31 34 32 30 30 29 29 32 30 26 25 27 29 27 26 25
3 6 6 7 5 4 5 4 7 11 6 4 3 6 6 6 5 5 5 2 1 3 4 2 4 3 7 7 3 2 4 8 11 13 15 20 25 24 22 20 18 18 17 16 17 16 15 15 15 15 17 19 21 24 27 29 31 33 34 33 33 33 34 34 33 33 31 30 32 31 31 34 32 29 29 30 31 33 32 29 29 31 30 29 27 28
1 3 6 7 5 5 4 1 5 9 4 4 6 7 6 5 5 5 4 3 2 3 4 6 6 2 6 5 2 0 3 7 11 11 12 17 22 21 18 15 11 10 9 8 7 7 7 7 7 9 11 14 18 21 23 25 28 31 32 33 33 33 34 34 34 33 32 31 32 31 32 35 34 32 32 33 34 34 33 32 33 32 29 29 28 30
1 2 2 4 4 5 6 4 3 4 7 10 8 6 7 5 4 3 2 4 2 5 4 9 10 5 4 5 4 4 4 6 8 8 10 14 19 17 11 7 4 3 4 5 5 4 5 4 4 5 8 11 15 18 22 24 27 29 30 32 32 32 33 34 34 34 34 33 33 33 35 37 36 32 32 35 36 34 34 34 32 28 26 27 29 32
2 1 1 3 5 8 9 6 6 6 8 8 4 4 4 3 3 4 4 4 1 5 3 5 5 4 6 7 4 6 7 6 7 8 9 10 16 16 8 4 2 1 3 4 4 4 4 4 4 6 8 11 14 17 21 24 26 28 29 30 31 32 33 34 35 35 34 35 35 35 35 35 33 32 32 34 34 34 35 32 28 26 25 27 30 33
1 4 2 1 5 8 7 5 5 4 2 4 4 6 4 2 2 2 3 0 3 6 3 3 1 2 8 8 7 11 12 11 11 13 15 14 19 22 16 11 8 6 6 5 6 7 7 7 9 10 11 12 14 16 19 22 25 27 28 30 30 31 32 34 35 35 35 35 34 34 35 34 33 34 35 33 32 34 32 28 27 27 27 28 32 33
3 5 1 3 3 8 9 6 3 1 2 5 5 6 4 2 1 3 3 1 4 5 2 2 1 3 6 5 11 17 18 19 19 22 25 24 27 29 25 20 18 17 16 14 13 13 13 14 15 14 12 12 13 15 17 20 23 26 27 29 30 31 32 34 35 36 35 35 34 33 34 35 36 37 37 34 33 31 28 28 29 27 26 28 32 33
5 6 5 6 4 11 12 7 7 6 5 5 4 5 5 5 5 5 3 3 5 3 2 2 1 4 4 3 8 13 17 22 25 28 29 29 34 35 32 30 28 27 24 21 20 19 18 18 16 13 11 10 12 13 16 18 21 24 26 27 29 30 32 34 35 36 35 35 34 33 34 36 37 37 36 35 34 30 29 30 28 24 24 27 31 33
5 7 6 2 2 13 12 5 7 8 3 3 2 4 4 5 5 2 3 5 2 2 3 2 4 5 5 6 10 9 12 16 20 24 24 30 37 34 33 35 33 30 27 24 22 19 16 13 11 9 8 9 11 12 15 17 19 21 23 25 28 29 31 33 34 35 34 34 35 35 35 35 36 35 36 36 34 32 30 28 26 23 24 26 28 31
3 5 5 3 1 6 5 2 5 4 3 2 3 4 4 3 6 4 2 1 4 2 4 2 5 6 3 7 11 8 9 10 12 14 18 27 30 25 29 33 30 27 23 20 17 11 8 7 6 7 7 8 10 11 13 15 17 19 21 23 25 28 31 33 33 33 33 33 35 35 34 33 34 35 35 34 34 34 30 26 24 24 25 26 27 31
5 3 5 2 1 3 1 2 3 2 4 5 4 5 2 2 4 3 2 1 3 3 5 2 6 6 3 5 6 3 8 11 11 11 15 21 22 22 28 27 22 20 17 14 11 7 5 4 3 5 7 8 9 10 12 13 15 17 20 22 23 26 30 31 32 33 33 33 33 34 33 32 33 33 32 32 33 32 28 24 25 26 28 27 26 31
4 2 5 1 2 3 2 3 2 4 3 5 4 4 4 3 2 1 3 3 2 3 4 4 5 4 5 5 3 3 10 13 13 11 9 14 21 26 28 24 21 19 15 10 7 6 6 3 1 4 6 8 8 10 12 13 15 17 19 21 22 25 27 29 31 32 33 33 33 32 32 32 32 33 33 33 31 28 26 26 27 29 30 27 26 31
3 3 4 2 2 1 3 2 5 1 2 3 2 2 2 2 4 3 3 3 3 3 3 4 5 4 7 6 7 10 12 11 11 9 7 15 24 26 22 21 20 15 10 9 8 9 8 4 1 3 4 7 8 10 12 14 16 18 19 21 22 24 26 28 31 33 33 33 32 32 32 32 32 33 34 33 29 26 26 27 29 32 31 26 25 31
3 3 4 3 3 1 2 5 8 8 6 3 3 4 3 1 2 1 1 2 3 3 2 2 5 8 6 5 8 11 10 10 10 8 9 15 19 17 15 14 12 10 9 9 10 10 7 4 1 3 4 5 8 10 13 15 17 18 19 21 23 24 26 28 30 32 32 31 31 31 32 32 31 32 33 31 27 26 27 28 30 31 29 25 26 31
3 3 4 2 1 4 5 4 4 7 8 8 8 8 9 6 4 3 3 1 2 3 4 4 5 10 7 4 8 9 7 8 10 10 9 15 15 9 7 7 8 9 9 9 10 10 7 4 3 4 4 5 7 10 13 15 17 19 20 21 23 25 27 28 30 31 31 31 30 30 30 30 30 32 33 31 28 27 29 31 31 28 26 26 28 31
5 3 3 4 4 6 5 1 1 3 3 4 4 5 6 6 5 5 5 4 2 1 2 4 2 10 6 4 6 6 5 6 10 10 8 17 20 7 2 6 9 8 8 8 9 9 7 6 6 5 4 5 8 10 12 15 17 19 20 20 22 25 27 28 29 30 31 31 30 29 29 30 30 32 34 33 31 30 32 33 32 28 26 27 30 31
4 2 3 4 3 3 4 3 2 2 2 2 3 2 3 4 4 4 4 4 3 3 3 3 4 10 5 2 3 6 8 6 9 12 10 15 20 8 4 8 8 8 8 10 11 9 8 9 8 6 6 7 9 10 12 15 16 18 20 20 22 24 26 28 29 30 31 32 31 29 30 31 31 33 35 33 31 32 34 34 32 28 25 27 29 31
7 3 5 4 3 4 4 3 2 1 1 3 4 3 5 7 5 3 1 2 1 6 8 5 7 10 3 3 2 3 7 5 7 14 11 11 16 10 7 10 8 8 9 11 11 7 7 11 11 11 11 10 10 10 12 14 16 18 20 20 22 23 25 27 28 29 31 32 32 31 31 32 32 34 36 32 29 30 32 32 32 29 26 27 30 32
9 3 6 7 6 7 6 6 5 3 2 2 3 5 7 9 9 5 2 3 5 9 8 6 10 12 3 5 5 3 5 6 8 14 13 12 13 11 10 12 10 10 11 11 9 4 9 14 16 17 17 15 13 12 13 15 16 18 19 21 22 23 25 27 28 29 30 32 33 33 33 34 34 35 36 33 30 30 30 30 31 31 29 30 31 33
3 2 8 10 11 12 12 9 5 7 6 6 8 9 9 10 12 9 4 5 10 9 7 9 14 16 11 6 6 6 5 7 7 10 12 12 11 12 16 17 13 13 16 13 6 9 16 18 19 21 21 21 19 15 14 15 17 19 19 21 22 23 24 26 28 28 30 31 33 33 34 35 35 35 34 32 31 32 33 32 32 32 31 32 33 34
3 2 9 12 14 15 15 9 7 8 10 13 14 13 12 12 12 12 11 13 13 7 11 16 12 15 21 13 7 8 7 7 8 10 13 13 13 17 21 21 17 18 18 12 9 17 23 22 22 23 24 26 23 19 16 17 19 20 20 21 23 24 25 27 28 28 29 31 32 34 35 35 35 34 34 32 32 34 35 35 35 33 32 33 34 34
3 5 8 10 13 17 16 7 8 8 8 9 13 15 15 14 15 16 19 21 17 10 13 19 12 15 24 16 10 11 9 8 11 14 14 13 16 20 20 22 23 21 17 14 16 22 25 26 26 26 27 28 26 23 20 20 22 22 22 22 23 25 26 27 28 29 30 31 32 33 34 34 34 34 34 33 34 35 34 34 35 34 34 35 34 34
4 6 8 8 9 14 16 8 8 9 5 3 8 12 14 16 19 21 23 24 21 15 16 21 18 21 23 13 9 14 18 20 20 18 15 13 17 21 21 23 25 23 21 22 23 25 27 29 29 28 29 30 29 28 26 25 25 24 22 22 23 25 26 28 29 30 31 32 32 33 33 33 34 34 34 34 35 35 34 32 33 34 35 34 33 33
6 6 5 5 5 9 14 10 7 8 6 5 5 7 12 16 20 22 22 18 15 14 19 22 20 22 18 7 9 17 22 22 19 19 20 22 25 28 29 30 30 29 30 30 30 32 33 33 32 31 31 31 30 31 31 29 26 24 23 22 22 24 26 28 29 30 31 32 33 33 32 32 33 34 35 34 34 34 34 32 31 31 32 31 31 33
5 3 1 3 3 9 14 14 8 5 3 5 7 9 15 17 16 16 14 12 13 16 19 17 16 19 10 6 10 16 16 15 16 20 24 28 31 35 37 38 38 37 37 38 39 40 39 38 36 34 33 31 30 31 31 30 27 25 25 22 21 23 25 27 29 30 30 31 33 34 33 32 32 33 34 33 33 34 34 32 29 29 30 29 29 31
5 3 2 3 4 10 15 14 7 4 3 7 12 18 21 18 12 9 11 16 18 17 14 12 16 20 12 5 9 11 9 12 18 24 27 30 33 37 40 42 43 43 43 43 42 42 40 39 37 34 31 30 29 29 29 28 27 26 25 22 20 21 23 26 28 29 30 31 32 34 34 33 32 32 31 31 31 32 33 32 30 30 29 28 27 30
5 5 3 3 3 10 14 8 4 6 9 10 12 17 20 18 15 15 18 22 21 15 13 14 16 21 17 10 11 11 11 17 24 29 32 33 35 38 40 42 43 43 43 43 40 39 37 35 33 31 29 28 27 28 28 28 28 26 23 21 19 20 22 24 27 28 29 30 32 34 34 34 33 31 29 29 29 29 31 31 30 30 30 28 28 30
6 6 5 3 3 6 6 3 4 9 10 7 6 9 14 17 21 23 24 25 22 16 15 18 21 24 23 20 21 21 21 25 30 32 32 34 39 41 40 40 41 40 40 38 35 34 32 31 30 29 28 27 26 27 28 28 28 26 24 21 20 21 22 23 25 26 27 29 31 33 34 34 33 31 29 29 29 29 29 29 29 29 31 31 29 30
8 7 4 3 4 3 3 5 7 7 3 4 7 6 6 9 13 16 17 22 22 19 17 20 25 29 26 26 30 30 25 22 24 28 33 34 38 40 40 40 40 38 37 35 33 32 31 30 30 28 26 26 26 27 27 27 27 26 24 21 19 20 21 22 23 24 25 27 29 31 32 32 32 31 30 29 30 30 28 27 28 29 31 31 30 30
11 8 5 5 5 5 6 8 6 5 5 7 12 9 6 8 10 11 12 17 19 19 20 20 25 28 25 26 32 28 19 13 13 26 39 39 38 40 41 41 40 37 36 35 33 32 30 27 26 25 24 24 24 26 27 26 26 25 22 20 19 19 20 20 20 20 21 24 26 28 30 30 30 30 29 28 28 28 27 27 28 28 29 30 30 29
13 10 8 7 6 6 8 7 6 6 7 12 18 12 11 14 14 11 10 12 13 18 23 22 24 26 21 23 25 16 10 7 8 21 36 36 34 37 37 36 36 32 30 30 28 26 23 21 21 21 21 21 20 21 23 23 22 20 18 17 17 16 17 17 16 16 17 19 21 23 24 26 26 26 27 26 25 25 26 27 27 26 26 27 27 27
15 12 10 8 5 6 8 8 7 8 7 11 16 9 12 20 15 9 5 10 15 19 23 23 22 22 20 23 18 9 7 7 9 20 29 26 23 27 26 25 26 23 22 22 19 18 18 17 18 18 17 16 16 17 18 18 17 16 14 13 13 13 13 12 11 11 12 13 15 17 18 20 21 22 23 23 23 24 25 25 24 22 22 22 23 23
12 9 9 9 8 9 9 8 7 5 6 10 10 5 12 22 19 11 5 12 14 16 22 24 20 21 27 29 16 9 7 12 15 23 27 20 17 19 18 17 18 17 16 15 14 15 16 17 18 17 14 13 14 14 15 14 14 13 11 11 11 11 10 10 10 9 10 10 11 12 13 15 16 17 17 18 20 20 21 20 19 18 17 17 18 18
8 7 7 9 11 12 12 11 7 4 6 9 7 7 16 20 15 8 11 10 4 5 17 26 26 29 36 30 16 13 21 30 31 31 25 16 15 15 14 14 14 13 13 14 15 17 18 18 17 15 13 13 12 12 13 13 12 12 13 14 14 14 14 14 13 13 13 12 12 11 11 11 12 12 13 14 15 15 15 15 13 12 12 12 12 12
7 6 7 9 10 10 11 11 8 6 8 8 6 12 17 13 7 10 7 2 4 2 11 22 29 33 37 32 25 28 36 39 36 33 26 21 18 15 13 14 14 14 16 17 17 17 16 16 14 12 11 11 11 12 13 14 15 16 17 18 17 17 17 17 16 16 15 15 14 13 12 12 11 11 11 11 11 11 11 10 9 9 9 9 9 9
8 6 6 7 8 7 7 9 8 8 9 13 13 8 8 10 10 10 6 5 9 9 11 19 25 27 30 33 33 36 37 33 30 29 28 25 20 17 17 16 15 17 17 16 15 14 13 12 12 12 13 14 15 15 15 17 18 19 19 19 19 19 19 18 18 17 17 16 16 15 14 14 13 13 12 11 11 11 10 10 10 10 10 11 11 11
6 7 6 5 7 7 7 8 6 4 5 20 18 6 11 17 12 6 5 10 14 14 13 17 21 22 25 29 31 31 32 30 28 26 24 22 21 19 18 16 16 16 15 14 14 13 13 14 15 16 17 18 18 18 18 18 19 20 20 20 19 19 19 19 18 18 17 17 17 16 16 16 15 15 14 14 14 13 13 13 14 13 13 13 12 11
5 6 4 3 4 5 4 6 4 6 3 15 14 7 12 20 18 12 8 9 10 11 14 17 19 20 22 26 26 26 27 27 26 24 21 19 18 17 15 15 16 15 15 15 16 16 16 17 18 19 20 19 19 19 19 19 19 19 19 18 18 18 17 18 18 18 18 18 18 18 18 17 17 17 17 16 16 16 15 15 14 14 13 12 11 9
4 4 1 1 2 3 6 10 9 9 12 14 17 15 15 18 20 19 17 16 14 13 13 14 17 18 20 23 24 24 24 24 23 21 19 18 17 16 17 17 17 17 17 17 18 19 19 19 19 19 20 20 20 20 20 20 19 17 17 17 17 18 17 18 19 19 19 20 20 19 19 19 19 19 18 18 17 16 15 14 14 13 12 11 10 9
4 6 4 2 3 4 7 9 10 14 19 21 21 23 24 23 22 20 21 23 25 25 21 18 17 17 19 22 23 23 22 21 20 20 20 19 18 18 19 19 19 19 18 18 19 19 19 19 19 19 19 19 21 21 21 21 20 18 18 18 19 19 19 19 19 19 20 20 20 19 19 19 18 18 18 17 16 15 15 14 12 11 10 10 9 8
5 8 6 3 5 6 6 7 9 13 17 18 18 19 21 23 22 21 21 24 28 29 27 23 20 18 19 21 22 21 20 20 20 20 20 19 19 20 21 20 20 20 19 19 19 18 18 18 19 19 19 19 21 21 21 21 20 19 19 18 19 19 19 19 19 19 19 19 19 19 18 18 17 17 16 15 15 14 13 12 11 11 10 9 8 7
1 4 5 4 5 5 6 9 13 12 10 13 20 23 24 24 23 24 25 25 24 25 25 24 22 20 19 19 21 21 20 20 20 20 20 21 22 22 22 21 21 21 21 20 19 19 19 19 18 19 19 19 21 20 20 20 19 19 19 18 18 19 19 19 19 19 19 19 18 18 18 17 17 16 15 15 15 15 14 13 12 12 10 9 8 7
1 2 3 3 4 6 7 9 11 8 6 13 21 24 24 25 26 28 29 27 25 24 23 23 23 20 18 18 19 19 19 19 18 19 21 22 23 23 23 23 23 23 22 22 21 20 19 18 18 18 19 20 20 19 19 20 20 20 20 19 19 19 18 19 20 19 19 19 18 18 17 17 17 16 15 15 14 14 14 13 12 11 9 7 7 6
7 6 5 5 6 9 12 13 11 7 9 20 27 24 21 23 25 29 32 32 29 26 23 23 23 22 20 20 19 17 17 17 18 21 23 24 24 24 24 24 24 24 23 22 22 21 20 19 18 18 19 21 21 20 21 21 21 21 21 20 20 19 17 17 18 18 18 18 17 17 16 15 15 15 14 14 13 12 12 11 10 10 9 7 6 4
Wind_Direction
98 103 155 205 207 196 194 173 149 148 121 117 119 109 148 197 267 249 249 292 177 195 264 241 249 269 267 266 269 274 280 277 268 268 268 269 270 269 269 268 268 267 266 266 265 261 256 253 249 248 249 248 249 250 252 252 251 249 245 243 244 245 244 242 238 235 231 228 224 221 218 222 229 220 213 214 204 197 203 214 225 228 230 233 233 234
91 152 225 224 198 179 172 139 118 108 87 92 118 116 199 214 256 251 231 307 318 187 266 278 283 273 267 268 268 269 272 267 262 260 263 266 268 269 268 268 268 267 267 268 267 264 261 258 254 251 249 248 250 251 252 252 250 249 246 243 243 244 244 241 240 235 230 229 222 213 211 219 229 222 210 209 205 210 226 234 239 247 246 235 228 227
75 219 243 198 137 110 96 112 113 106 90 82 114 122 268 242 270 284 306 332 10 186 269 326 303 274 273 274 267 262 253 256 261 259 261 264 264 266 266 267 268 268 269 268 267 265 263 261 258 255 253 251 252 252 252 252 250 248 245 243 242 243 243 240 238 233 229 229 221 215 218 223 225 216 208 211 217 227 238 240 240 247 243 228 223 222
158 250 253 167 139 106 74 92 102 98 95 99 132 142 249 252 272 284 294 325 345 189 272 314 301 278 275 273 268 263 252 255 262 261 262 262 260 263 264 265 267 269 270 270 269 266 263 261 260 258 257 255 253 252 252 251 248 247 244 243 241 241 242 239 235 232 228 223 219 220 221 221 219 212 210 215 226 234 235 234 233 236 239 239 239 227
218 249 193 135 137 117 106 121 123 128 196 244 181 172 217 230 212 236 286 322 320 346 350 328 308 288 275 271 270 277 266 260 261 259 261 261 259 262 264 264 264 266 269 272 273 270 266 262 260 260 259 257 255 254 254 253 251 249 246 244 240 239 240 238 234 231 226 219 217 220 215 210 211 211 216 223 230 230 226 224 224 229 243 253 250 225
249 221 131 110 92 106 116 151 174 160 182 270 232 204 212 210 205 238 342 3 357 337 341 13 302 282 308 287 264 283 307 277 267 258 262 265 265 263 264 265 266 267 269 271 274 274 271 268 265 261 258 256 255 255 255 254 253 249 246 244 241 239 238 238 235 229 224 219 219 219 216 212 209 212 219 224 227 223 217 218 221 234 248 253 251 224
234 165 120 119 123 115 113 173 217 171 140 273 248 210 207 179 166 205 62 31 309 273 288 72 210 271 306 281 263 273 281 277 279 271 266 268 268 265 265 268 270 271 272 273 274 274 273 272 268 264 260 258 255 254 253 252 250 247 245 244 242 240 238 237 236 230 223 221 221 218 219 222 220 218 220 221 223 218 215 222 228 240 246 247 253 228
168 151 100 112 117 114 133 202 223 163 133 240 250 162 162 159 179 192 153 179 238 277 302 94 146 270 288 267 267 282 271 278 285 278 271 269 269 270 272 274 277 278 277 276 274 272 271 268 265 263 262 260 257 253 250 249 248 247 245 244 242 240 237 236 235 232 226 223 222 217 217 224 230 227 222 222 223 218 222 231 236 244 243 245 251 226
161 177 184 154 126 145 181 221 195 154 134 247 209 122 137 151 160 138 123 168 320 346 298 191 148 261 274 263 285 321 270 276 274 267 268 271 275 281 285 288 288 283 277 272 269 265 262 259 256 257 256 255 253 250 249 248 249 249 246 244 241 239 237 234 233 232 227 222 221 220 218 222 229 230 225 227 226 222 227 236 243 246 240 244 245 218
64 184 193 158 145 192 201 288 186 162 151 176 140 98 85 82 81 90 106 118 57 328 257 192 168 223 273 257 225 253 250 253 259 261 264 272 279 286 294 297 292 276 259 248 245 236 232 236 238 244 248 247 245 244 245 246 246 247 246 244 241 239 237 234 231 229 227 224 221 219 217 219 226 229 226 227 225 224 230 236 240 240 237 244 238 214
342 75 172 163 167 171 133 65 47 120 134 137 120 77 65 45 44 59 45 82 72 292 247 191 186 186 270 263 208 212 221 214 231 256 268 274 278 281 290 301 293 250 211 196 194 191 194 207 220 242 254 251 243 239 238 238 240 242 244 243 242 240 238 235 231 227 224 223 223 220 217 220 226 228 226 224 223 226 232 233 233 237 238 240 232 217
344 87 238 194 157 127 104 68 39 72 120 121 94 89 86 354 12 31 348 54 121 257 250 218 205 173 240 257 241 250 260 232 215 237 257 267 269 270 268 264 271 206 183 179 191 207 214 230 256 273 273 261 247 240 237 236 236 238 240 241 240 239 237 234 231 229 226 221 221 221 221 223 227 227 225 222 227 234 235 231 233 241 242 233 226 219
247 228 254 145 162 153 119 76 44 28 60 94 98 113 103 329 355 346 297 90 222 247 247 238 201 214 244 255 264 265 266 251 229 230 241 248 259 265 264 257 258 250 245 254 253 254 258 269 285 288 281 268 256 248 243 239 237 237 239 239 239 238 236 233 230 229 228 224 222 221 222 225 228 227 224 225 234 238 234 235 242 247 244 232 224 216
269 295 252 135 203 191 164 138 142 216 197 160 149 142 137 140 171 254 260 272 266 264 256 217 160 255 271 272 246 243 247 247 243 244 248 253 260 266 268 265 265 265 265 269 270 273 277 284 292 291 281 269 261 255 248 244 242 239 239 240 240 238 235 233 230 228 227 226 224 221 220 223 226 226 226 231 235 236 239 243 243 244 247 237 225 214
217 283 209 177 191 184 185 185 162 144 160 185 162 139 158 165 175 216 212 210 253 280 293 250 187 204 221 262 245 242 255 257 254 254 256 260 263 266 269 268 266 266 266 269 273 278 283 286 289 285 278 269 262 257 252 248 245 243 241 241 241 240 237 234 231 229 227 226 225 223 220 221 223 225 228 231 232 235 242 241 234 240 251 242 227 215
201 260 240 246 171 168 181 190 136 114 136 210 120 120 195 192 156 171 195 179 188 322 304 226 223 217 211 278 277 262 269 266 258 259 261 260 261 263 266 265 262 261 264 270 277 281 281 280 282 280 277 271 260 256 254 250 248 247 245 243 242 241 240 238 234 231 229 225 224 225 225 223 222 224 228 227 228 233 234 233 234 244 252 243 228 216
173 268 287 347 36 172 186 185 143 143 178 166 140 178 212 167 119 115 227 100 78 275 274 210 246 278 315 287 272 256 265 272 268 266 259 256 260 263 263 261 259 258 262 270 274 275 269 267 283 291 288 278 268 262 259 256 254 252 250 247 244 242 239 238 237 234 231 228 225 225 226 224 223 225 228 228 231 232 228 230 237 240 240 235 225 216
161 254 294 41 148 239 268 108 93 56 118 133 187 204 168 104 99 109 199 346 44 245 269 264 249 274 298 276 287 283 261 262 260 256 254 260 266 264 259 258 259 260 264 269 266 254 237 242 292 308 300 290 278 270 263 259 256 253 251 249 246 244 241 239 238 236 234 232 229 228 226 224 223 222 224 228 231 230 228 235 241 234 228 225 221 217
155 231 293 26 179 264 359 120 114 14 71 130 187 181 117 151 190 108 169 198 214 242 273 289 279 260 216 233 274 230 228 238 246 251 258 264 261 257 258 261 263 264 263 257 244 213 197 193 312 306 297 291 282 273 265 258 255 250 248 248 245 245 243 241 240 238 236 234 231 230 229 226 223 222 225 229 227 226 232 239 240 231 221 218 220 220
133 200 270 326 263 280 30 167 190 198 41 60 94 122 103 164 180 170 161 169 192 217 250 302 314 272 217 205 204 215 221 221 234 248 243 241 245 249 259 266 263 257 245 225 199 188 183 163 278 274 278 286 280 274 266 257 254 251 249 248 245 243 242 239 238 238 237 234 231 230 229 226 224 225 229 228 224 229 234 235 235 229 219 218 223 222
102 204 239 317 323 198 181 217 196 179 165 149 166 179 191 163 125 176 182 126 149 170 193 265 289 268 241 192 194 214 223 212 213 227 239 246 247 251 261 263 252 230 213 200 181 174 172 161 233 259 261 278 279 275 270 262 257 253 248 247 246 243 242 239 237 238 236 234 232 230 227 224 223 226 225 222 226 234 234 232 233 227 219 222 229 226
169 193 185 171 237 198 218 245 208 189 184 182 187 195 197 181 150 187 232 216 126 149 181 173 261 270 254 186 198 214 213 214 227 229 249 272 267 259 265 244 213 207 195 184 181 177 180 195 227 252 258 281 290 285 277 270 262 256 250 248 247 244 244 241 239 238 236 234 233 230 225 222 221 223 221 223 233 237 233 230 226 221 220 227 232 230
165 124 149 199 216 215 233 276 177 214 199 189 203 202 197 189 174 181 207 217 152 175 183 121 249 269 260 180 201 235 229 237 260 244 245 276 268 243 228 216 190 190 184 182 198 195 197 216 227 245 266 295 302 298 289 279 271 263 257 252 250 247 246 244 242 240 238 235 233 229 225 222 221 223 224 228 234 234 233 230 219 216 224 227 231 232
142 120 193 234 278 300 313 355 34 52 86 209 243 179 156 192 186 156 173 190 163 196 189 118 244 260 274 233 220 267 262 246 263 251 232 264 269 249 207 216 184 180 198 202 207 205 217 236 240 257 277 294 300 302 298 288 279 272 264 257 253 251 249 247 244 242 238 235 232 228 225 224 224 226 225 226 230 233 236 229 216 217 225 226 231 233
166 188 199 208 286 318 319 321 313 353 131 214 228 186 180 185 158 110 138 177 187 222 197 172 246 252 280 324 281 286 280 255 250 257 239 237 259 255 219 219 196 185 202 207 206 215 256 258 257 270 278 282 288 293 295 293 287 279 272 265 258 253 251 249 246 243 239 235 231 227 225 225 225 227 225 224 230 237 236 225 218 224 231 232 236 233
172 196 183 187 223 234 233 231 220 197 163 216 225 197 197 183 167 169 179 174 223 230 201 185 245 253 285 341 304 277 289 276 246 255 246 225 244 248 222 221 208 192 210 217 211 262 307 281 271 276 278 277 279 282 288 292 290 282 275 269 261 254 251 249 247 244 241 236 231 227 226 225 226 227 227 225 228 234 233 227 229 234 235 237 238 232
149 255 196 197 214 221 232 233 180 132 141 202 217 195 196 194 182 183 171 197 223 234 235 227 239 256 265 276 282 268 262 269 257 251 247 239 244 238 225 227 223 224 243 247 247 300 304 290 281 282 282 281 279 278 284 290 289 282 275 269 263 256 252 249 247 244 241 238 233 229 228 227 227 229 229 228 230 234 231 228 232 237 237 238 240 234
102 253 213 218 224 230 243 233 169 156 175 202 209 193 196 196 180 187 206 219 222 218 247 243 225 250 260 245 237 257 253 259 267 258 254 256 251 237 229 229 232 241 255 266 284 291 290 288 285 285 288 287 281 277 283 292 291 281 273 268 262 257 253 249 247 245 242 239 236 232 229 228 228 228 230 231 234 238 236 231 231 234 236 238 239 235
143 227 215 223 232 242 255 233 170 191 196 197 205 195 194 191 183 198 216 223 221 208 242 251 224 231 253 246 218 229 228 230 246 247 248 251 250 245 239 237 241 247 258 269 275 276 279 283 282 284 289 290 284 280 284 292 292 283 274 269 263 256 253 250 247 245 243 241 239 236 231 229 228 228 230 232 234 237 239 237 234 233 235 237 238 236
167 223 218 210 228 249 257 237 181 204 217 202 212 201 194 193 193 205 217 223 224 220 239 253 246 244 252 244 207 218 225 232 243 251 255 258 257 258 256 251 252 256 260 265 268 269 274 279 280 281 285 287 286 286 289 291 290 285 278 272 266 259 254 251 247 245 243 243 242 239 234 230 229 229 232 233 233 234 237 239 238 236 236 239 239 236
184 222 218 185 221 256 258 246 194 192 213 223 228 217 209 208 207 213 221 223 223 228 239 246 255 261 257 222 197 221 226 232 247 255 257 257 255 257 261 260 260 262 263 265 268 271 274 276 277 278 280 283 285 286 289 289 287 284 280 274 268 261 254 251 249 246 244 243 242 240 237 232 229 229 233 233 231 231 235 240 241 238 238 240 240 237
184 223 72 117 221 248 251 249 224 182 207 242 244 229 217 216 216 217 222 222 212 220 233 241 252 260 253 155 190 220 217 223 239 242 244 248 247 248 253 257 259 261 262 265 267 271 274 274 275 278 279 280 282 282 284 285 283 282 281 277 272 263 255 251 250 248 245 243 241 240 239 235 230 230 232 232 230 230 234 239 239 237 240 242 240 237
164 161 153 159 209 242 248 250 236 190 209 241 239 231 223 218 216 218 228 230 220 213 220 228 238 249 248 173 201 223 203 211 229 231 235 244 246 247 249 251 255 258 260 263 266 269 272 273 273 276 277 278 278 277 278 279 278 279 279 277 271 261 254 251 250 248 245 243 241 239 239 237 234 232 231 231 232 231 233 238 236 234 240 243 239 237
169 164 193 177 188 246 249 238 192 204 224 234 235 233 229 218 209 216 227 230 225 215 222 236 246 256 259 239 229 231 216 223 235 235 237 244 249 251 253 253 255 258 260 262 265 267 270 271 273 275 276 276 274 273 272 272 273 275 275 272 263 251 247 248 247 246 244 242 241 239 238 236 235 234 233 233 234 232 234 239 238 235 238 242 240 237
183 188 201 185 195 246 244 176 189 224 226 238 253 240 230 219 213 220 230 237 234 224 229 244 253 257 255 248 245 243 237 240 246 245 244 247 251 252 253 256 258 259 261 263 266 269 271 272 275 276 274 271 268 265 265 266 269 272 271 266 255 244 242 243 244 244 242 240 240 238 237 235 234 234 233 233 235 235 236 241 243 240 240 241 240 239
195 196 197 199 205 222 208 194 220 239 251 285 280 255 223 215 217 222 237 246 241 229 226 234 243 248 251 250 249 249 250 254 257 256 251 249 250 251 251 255 259 262 267 271 272 274 276 276 276 274 269 266 263 260 261 262 264 268 267 259 247 239 239 240 240 241 239 238 238 237 236 235 233 233 233 233 235 236 236 241 246 245 244 243 242 240
204 202 199 210 203 200 222 225 236 282 306 273 257 240 181 181 196 196 224 246 241 228 224 227 239 246 248 250 251 251 254 265 272 265 258 252 251 253 254 259 265 269 272 275 275 276 277 276 274 272 269 266 263 259 260 261 262 263 260 250 240 234 234 236 237 237 236 236 236 236 236 235 234 233 234 234 236 237 238 242 246 248 248 247 245 244
206 202 195 213 207 194 223 237 237 250 248 244 249 236 178 187 196 178 201 247 250 230 219 220 236 243 244 252 252 241 235 256 272 266 262 258 256 257 259 263 267 269 269 270 271 271 271 271 271 272 272 269 265 261 259 259 258 254 248 239 232 228 229 230 230 230 230 231 233 234 235 236 236 236 235 234 236 238 241 245 248 250 250 249 249 248
208 206 201 215 212 195 217 233 229 230 231 240 253 244 180 184 179 137 164 243 256 238 214 211 230 238 241 248 238 185 178 236 256 261 262 263 262 260 260 260 260 261 261 260 261 262 264 267 268 269 270 267 263 258 253 249 244 238 231 223 215 213 214 213 212 214 216 220 225 228 232 234 236 236 236 235 236 238 244 249 251 251 251 249 250 250
202 205 210 217 218 214 221 232 232 238 244 242 251 241 174 166 145 118 191 238 253 239 211 204 216 227 235 239 221 157 185 223 239 259 264 264 262 257 253 253 252 251 250 248 251 256 260 263 264 264 263 258 251 244 237 230 223 213 202 193 186 181 176 172 172 176 184 194 202 210 218 225 228 231 232 233 235 238 244 248 250 250 250 250 251 252
197 203 208 212 222 222 223 234 244 239 240 244 236 174 157 147 137 171 218 228 250 213 199 201 205 216 230 231 204 191 227 232 237 251 261 261 256 249 241 239 237 237 244 250 254 256 256 257 258 257 252 243 233 224 215 204 193 180 166 159 155 152 150 150 153 157 163 169 176 184 193 201 209 215 219 224 230 234 238 242 243 245 246 246 247 249
191 201 205 208 220 222 222 236 248 245 232 218 174 152 151 149 186 216 216 311 337 219 195 199 204 216 227 226 213 219 234 238 238 245 252 253 249 240 231 231 234 243 255 257 255 251 247 247 246 239 227 213 196 186 178 167 159 154 149 147 147 147 148 148 151 154 155 158 161 165 169 175 182 190 197 206 212 216 219 223 224 224 225 226 227 231
182 188 203 204 205 211 226 227 226 250 229 171 140 135 171 198 230 223 214 274 260 238 218 205 206 217 225 225 225 228 234 238 238 240 242 242 241 238 238 240 244 247 248 244 239 235 229 224 215 201 188 175 164 159 154 150 150 149 148 148 149 149 151 152 153 154 154 155 157 157 160 164 168 174 180 185 189 193 196 200 201 202 206 209 214 218
182 191 202 204 198 199 218 216 208 273 208 164 156 176 209 212 237 254 233 245 242 234 228 213 210 218 222 226 231 230 229 233 235 235 235 234 235 238 239 239 237 232 225 218 214 208 199 194 187 177 168 160 154 151 148 150 152 152 151 152 152 153 154 153 153 153 153 153 154 155 158 161 164 168 171 174 178 181 184 188 192 195 198 201 205 208
225 219 197 199 216 206 223 240 265 330 265 188 195 238 218 218 243 261 258 269 265 245 233 222 217 218 221 227 231 228 227 230 229 229 229 227 227 228 224 220 216 209 203 198 191 183 179 179 178 171 164 158 154 151 149 151 155 154 153 152 151 151 150 148 148 148 149 150 152 155 157 160 163 166 168 171 174 176 178 182 184 185 187 189 190 191
258 255 190 128 243 248 261 259 262 290 281 240 231 240 234 233 245 249 251 263 270 266 259 245 234 229 228 231 231 228 229 229 225 224 223 220 218 214 207 203 196 189 188 185 180 175 173 173 173 169 164 158 155 153 150 150 154 155 151 148 147 146 146 147 147 148 150 151 153 155 157 159 162 163 165 167 169 170 171 173 174 173 174 176 177 176
244 221 201 206 221 223 243 240 227 240 253 246 233 230 233 238 243 248 253 254 254 259 264 261 250 241 237 236 234 232 230 226 222 219 216 212 208 200 193 190 185 182 182 181 178 174 171 171 170 166 163 159 155 154 152 151 152 153 150 148 148 146 147 150 149 150 151 151 152 153 155 157 159 160 161 163 164 165 166 166 166 166 165 165 166 166
224 194 188 218 228 219 237 252 249 251 254 251 242 235 233 236 241 248 255 254 251 252 254 256 253 245 239 238 236 234 231 225 221 217 210 202 197 190 186 185 183 180 177 176 175 169 166 169 167 162 162 161 155 154 154 152 151 151 149 148 148 147 148 149 148 148 148 148 149 151 152 154 157 157 158 158 157 157 156 155 153 151 149 149 147 145
156 174 190 215 230 241 265 268 267 276 285 270 256 249 244 244 245 247 250 251 249 247 246 248 249 246 240 237 234 233 228 220 214 212 204 195 188 184 181 180 179 177 172 168 165 161 162 165 164 162 163 160 154 152 152 151 150 149 148 147 147 147 146 145 145 145 145 145 148 149 149 151 152 151 151 150 149 147 145 142 141 139 139 140 140 143
122 203 218 223 233 243 251 250 247 254 276 269 261 257 256 255 250 248 249 250 249 248 245 243 241 236 228 225 228 229 224 214 206 202 197 189 184 180 179 176 174 170 165 160 155 156 161 163 162 164 162 155 151 150 149 148 147 145 144 142 141 142 143 142 142 143 143 144 145 145 145 145 144 142 142 141 140 140 139 138 138 140 143 149 156 164
218 221 219 224 239 246 255 259 251 230 247 264 266 267 269 266 258 251 251 250 249 247 242 235 230 221 211 210 214 216 217 214 206 196 188 182 178 176 174 172 169 165 161 157 155 157 162 163 163 163 159 150 146 146 146 146 144 141 141 139 137 138 142 143 143 144 143 141 141 140 139 139 139 139 139 139 139 141 143 146 152 156 158 165 172 182